Date/Time (UTC),PHv2,PWv2,PTv2,PSv3,PHv3,PWv3,PTv3,MESH,VIL,CompRef,Ref -20C,Flash Rate,Max Flash Density,LJA sigma-level,Max 0-2km AzShear,LLAZ 98th%,MLAZ 98th%,MUCAPE,MLCAPE,CAPE -10C to -30C,MLCIN,SRH 0-1km AGL,EBShear,MeanWind 0-1km AGL,Norm. Sat. Growth Rate,ICP,PWAT,WBZ,AvgBeamHgt,STP(eff),DCAPE,ESRH
2022/04/12 21:48,24,10,1,18,15,2,0,0.2,4,47.0,46,4,0.24,0,5,4,5,3023,2787,706,99,390,55,51,3.8,3,1.2,9.3,8.34,0,1071,56
2022/04/12 21:50,24,10,1,22,17,3,0,0.22,7,47.0,46,4,0.3,0,5,4,4,3001,2754,700,106,390,55,51,3.8,8,1.2,9.3,8.35,0,1071,56
2022/04/12 21:52,20,26,2,16,13,4,1,0.22,7,47.0,46,4,0.3,0,7,7,5,2974,2746,697,112,389,55,51,3.8,1,1.2,9.3,8.32,0,1071,56
2022/04/12 21:54,33,36,2,28,27,5,3,0.43,8,52.0,48,4,0.3,0,7,7,6,2879,2680,668,136,386,53,50,3.8,48,1.3,9.3,8.28,0,993,73
2022/04/12 21:56,33,36,2,16,15,4,1,0.43,10,52.0,46,3,0.3,0,7,7,2,2833,2603,659,160,374,53,50,3.8,35,1.3,9.3,8.16,0,993,73
2022/04/12 21:58,30,36,2,26,14,6,2,0.43,11,52.0,45,3,0.3,0,7,7,4,2833,2599,659,160,370,52,50,3.8,50,1.3,9.3,8.02,0,993,73
2022/04/12 22:00,15,24,1,32,11,13,3,0.23,11,55.5,40,3,0.3,0,5,4,4,2821,2498,665,205,352,51,49,3.8,34,1.4,9.4,7.82,0.1,1031,220
2022/04/12 22:02,14,21,1,22,9,9,1,0.21,11,55.5,39,2,0.3,0,5,4,2,2737,2578,725,102,384,62,53,3.8,51,1.4,9.4,7.69,0.1,1031,220
2022/04/12 22:04,20,24,1,21,7,9,1,0.07,10,55.5,41,3,0.3,0,5,4,1,2740,2569,725,107,390,62,53,3.8,41,1.4,9.4,7.62,0.1,1031,220
2022/04/12 22:06,20,4,1,10,3,4,0,0,7,51.5,38,3,0.3,0,4,3,1,2740,2569,725,107,390,62,53,2.8,40,1.4,9.4,7.61,0.1,1031,220
2022/04/12 22:08,19,5,1,12,6,4,1,0.05,5,49.5,40,3,0.3,0,4,3,3,2775,2551,725,114,408,60,53,2.8,46,1.4,9.4,7.49,0.1,1031,220
2022/04/12 22:10,37,15,1,27,15,6,1,0.23,7,49.5,45,19,0.44,12.3,5,3,2,2777,2594,738,108,393,62,53,2.8,57,1.4,9.4,7.37,0.1,1031,220
2022/04/12 22:12,47,36,1,28,14,6,1,0.23,8,49.5,44,30,0.52,1.5,5,3,3,2754,2600,738,101,384,63,53,0,64,1.4,9.4,7.43,0.1,1031,220
2022/04/12 22:14,47,62,1,44,34,18,2,0.23,17,49.5,52,30,0.55,0,5,4,5,2741,2600,738,101,385,63,53,0,71,1.4,9.4,7.47,0.1,1031,220
2022/04/12 22:16,75,68,1,56,42,21,4,0.5,17,53.0,51,30,0.6,0.3,5,4,5,2766,2589,738,107,390,62,53,0.4,81,1.4,9.4,7.37,0.1,1031,220
2022/04/12 22:18,76,78,3,70,46,35,19,0.5,17,57.5,51,31,0.61,0.5,9,7,6,2768,2569,726,111,399,62,53,0.4,71,1.4,9.4,7.48,0.1,1031,220
2022/04/12 22:20,82,83,6,70,49,33,19,0.5,17,57.5,54,46,0.99,2.0,9,7,7,2771,2569,726,112,402,61,53,0.4,70,1.4,9.4,7.43,0.1,1031,220
2022/04/12 22:22,90,85,6,73,50,32,20,0.73,23,57.5,53,46,0.99,-1,9,7,4,2799,2564,731,118,417,60,53,0,79,1.4,9.4,7.31,0.1,1031,220
2022/04/12 22:24,90,85,5,59,43,26,8,0.73,23,59.5,50,46,0.99,0.3,9,6,4,2806,2558,731,120,426,59,53,0,82,1.4,9.4,7.35,0,1009,214
2022/04/12 22:26,94,83,1,74,58,29,5,0.91,32,59.5,56,57,0.99,2.4,6,4,5,2822,2550,734,124,433,58,52,0,83,1.4,9.4,7.33,0,985,119
2022/04/12 22:28,95,83,1,77,58,34,6,0.91,32,61.0,55,57,0.99,-2,7,4,4,2822,2551,734,124,431,59,52,0,86,1.4,9.4,7.31,0,985,123
2022/04/12 22:30,94,85,2,77,57,38,8,0.91,32,61.0,55,57,0.99,0.0,8,5,5,2836,2550,740,128,430,58,52,0,86,1.4,9.4,7.31,0,985,123
2022/04/12 22:32,94,85,5,80,58,48,13,0.87,30,61.0,57,57,0.99,0,11,6,5,2836,2550,740,128,430,58,52,0,85,1.4,9.4,7.31,0,985,123
2022/04/12 22:34,90,83,5,81,59,45,12,0.76,28,64.5,57,35,0.99,-1,11,6,5,2870,2523,757,134,431,57,52,0,89,1.4,9.4,7.29,0,985,119
2022/04/12 22:36,90,85,6,83,57,49,14,0.76,28,64.5,52,35,0.99,0.2,11,6,6,2870,2523,757,134,431,57,52,0,89,1.4,9.4,7.29,0,985,119
2022/04/12 22:38,87,85,9,85,59,53,17,0.76,28,64.5,50,31,0.99,1.6,11,7,7,2856,2539,749,131,424,58,52,0,87,1.4,9.4,7.29,0,985,123
2022/04/12 22:40,87,85,9,85,55,53,17,0.76,28,64.5,50,32,0.99,0.1,11,7,7,2856,2539,749,131,424,58,52,0,87,1.4,9.4,7.29,0,985,123
2022/04/12 22:42,70,76,9,72,41,42,10,0.42,24,60.5,50,34,0.99,0.2,11,7,6,2879,2525,758,132,427,58,52,0,86,1.4,9.4,7.21,0,931,123
2022/04/12 22:44,80,84,9,75,50,45,12,0.48,24,60.5,51,55,0.99,2.2,11,7,6,2874,2530,758,132,429,58,52,0,87,1.4,9.4,7.22,0,931,123
2022/04/12 22:46,80,81,2,71,48,34,6,0.48,24,60.5,52,55,0.99,-2,7,5,6,2874,2530,758,132,429,58,52,0,88,1.4,9.4,7.22,0,931,123
2022/04/12 22:48,91,88,2,76,58,30,7,0.71,27,60.0,55,55,0.99,0.9,7,5,5,2885,2512,778,136,421,58,52,0,94,1.4,9.4,7.23,0,931,123
2022/04/12 22:50,91,88,2,76,57,30,7,0.71,27,60.0,54,55,0.99,0,7,5,6,2885,2512,778,136,421,58,52,0,95,1.4,9.4,7.23,0,931,123
2022/04/12 22:52,90,85,1,76,59,28,5,0.71,29,61.5,54,48,0.92,0.3,5,4,5,2882,2490,794,140,412,58,51,0,93,1.4,9.4,7.25,0,931,123
2022/04/12 22:54,91,87,1,76,63,31,6,0.71,29,61.5,54,59,0.92,0.7,5,4,5,2883,2483,798,140,412,58,51,0,98,1.4,9.4,7.24,0,931,123
2022/04/12 22:56,94,85,2,82,66,46,12,0.85,36,61.5,55,59,0.92,-1,10,4,4,2882,2483,798,143,411,58,51,0,99,1.4,9.4,7.24,0,931,123
2022/04/12 22:58,96,85,2,87,72,45,13,0.99,40,65.0,57,59,0.55,1.6,8,5,4,2810,2545,822,87,436,55,50,0,100,1.4,9.4,7.25,0,931,123
2022/04/12 23:00,97,92,13,89,74,66,49,1.06,40,65.0,57,59,0.49,-2,16,9,6,2810,2542,822,86,438,55,50,0,100,1.4,9.4,7.2,0.8,1015,76
2022/04/12 23:02,98,95,16,90,75,63,48,1.15,45,65.5,57,59,0.49,0,16,9,7,2808,2563,824,86,437,55,50,0,99,1.4,9.4,7.03,0.8,1015,76
2022/04/12 23:04,98,95,16,89,75,54,46,1.15,48,65.5,58,59,0.49,0.3,16,9,4,2809,2542,822,85,439,54,50,0,99,1.4,9.5,6.96,0.8,1015,76
2022/04/12 23:06,96,92,12,87,73,51,43,1.15,48,65.5,57,34,0.49,0,11,8,5,2809,2542,822,85,439,54,50,0,99,1.4,9.5,6.96,0.8,1015,76
2022/04/12 23:08,97,89,12,86,73,56,44,1.22,49,63.0,59,37,0.49,0.6,14,7,5,2815,2526,818,84,444,53,50,0,100,1.4,9.5,6.85,0.8,1015,76
2022/04/12 23:10,98,92,16,88,71,52,42,1.22,49,64.5,56,59,0.49,1.9,15,9,5,2816,2515,816,84,445,53,50,0,100,1.4,9.5,6.83,0.8,1015,76
2022/04/12 23:12,98,95,30,91,77,64,48,1.22,49,64.5,57,59,0.49,-1,15,9,9,2819,2489,811,85,448,52,50,0,100,1.4,9.5,6.79,0.6,1015,76
2022/04/12 23:14,95,95,23,88,75,55,45,0.86,39,64.5,56,59,0.49,0,15,9,7,2820,2485,808,85,451,52,50,0,99,1.4,9.5,6.8,0.6,1015,76
2022/04/12 23:16,95,95,41,85,74,66,36,0.89,39,62.0,56,59,0.49,1.4,19,11,9,2823,2479,802,85,452,52,50,0,98,1.4,9.5,6.8,0,967,124
2022/04/12 23:18,95,92,41,86,74,65,33,1.02,39,63.5,56,53,0.49,-1,19,11,9,2827,2454,796,85,455,51,50,0,97,1.4,9.5,6.74,0,967,124
2022/04/12 23:20,95,95,41,87,74,65,32,1.02,42,63.5,57,53,0.49,0.1,19,11,9,2828,2454,789,86,455,51,50,0,97,1.4,9.5,6.7,0,967,124
2022/04/12 23:22,96,95,20,86,74,55,28,1.1,50,63.5,56,53,0.49,0.2,16,7,8,2829,2449,784,86,465,51,50,0,97,1.4,9.5,6.57,0,967,124
2022/04/12 23:24,97,95,18,87,76,65,27,1.29,52,62.0,60,43,0.49,0.7,17,6,8,2829,2439,784,86,467,50,50,0,98,1.4,9.5,6.5,0,967,124
2022/04/12 23:26,98,95,59,88,78,61,32,1.37,54,62.0,60,55,0.49,0.9,24,12,14,2828,2477,782,86,468,50,50,0,97,1.4,9.5,6.38,0,967,124
2022/04/12 23:28,98,95,60,90,80,62,48,1.38,55,63.5,60,55,0.49,0,24,12,12,2825,2479,784,86,465,50,50,0,99,1.4,9.5,6.41,0.6,1015,76
2022/04/12 23:30,98,95,59,92,81,61,48,1.53,57,64.0,62,55,0.45,0.6,24,12,9,2825,2479,783,86,465,50,50,0,99,1.4,9.5,6.39,0.6,1013,76
2022/04/12 23:32,99,95,59,92,81,64,36,1.63,58,64.5,62,89,0.45,6.6,24,12,7,2825,2477,782,86,465,50,50,0,100,1.4,9.5,6.37,0,967,124
2022/04/12 23:34,99,95,26,92,81,66,36,1.63,59,64.5,62,89,0.45,-2,18,8,7,2825,2436,779,87,465,50,50,0,100,1.4,9.5,6.43,0,967,124
2022/04/12 23:36,99,95,38,92,80,64,35,1.63,59,64.5,60,94,0.45,1.6,17,11,9,2825,2436,779,87,465,50,50,0,100,1.4,9.5,6.43,0,967,124
2022/04/12 23:38,99,95,40,92,80,65,34,1.5,59,65.0,60,94,0.57,0,17,11,8,2825,2425,778,88,465,49,50,0,100,1.4,9.5,6.41,0,967,124
2022/04/12 23:40,99,95,40,92,80,65,34,1.5,59,65.0,60,96,0.57,0.9,17,11,9,2826,2400,778,89,465,49,50,0,100,1.4,9.5,6.45,0,967,124
2022/04/12 23:42,99,95,37,93,80,67,35,1.47,54,66.0,60,96,0.57,-1,17,10,9,2826,2385,776,89,465,49,50,0,100,1.4,9.5,6.43,0,967,124
2022/04/12 23:44,99,95,54,93,80,63,35,1.47,54,66.0,60,96,0.57,0.8,18,12,12,2826,2385,776,89,465,49,50,0,100,1.4,9.5,6.43,0,967,124
2022/04/12 23:46,99,95,53,92,81,63,34,1.41,54,66.0,60,96,0.57,0,18,12,10,2826,2340,775,90,467,48,50,0,100,1.4,9.5,6.41,0,967,124
2022/04/12 23:48,99,95,55,92,82,63,34,1.41,54,66.0,60,85,0.57,0.1,30,14,13,2826,2324,774,90,468,48,50,0,100,1.4,9.5,6.41,0,967,124
2022/04/12 23:50,99,95,55,91,83,63,34,1.41,54,64.5,60,85,0.57,0,30,14,11,2825,2302,774,90,469,48,50,0,100,1.4,9.5,6.39,0,967,124
2022/04/12 23:52,99,95,55,92,82,62,34,1.48,54,64.0,60,114,0.57,2.4,30,14,10,2822,2284,774,91,469,48,50,0,100,1.4,9.5,6.42,0,954,127
2022/04/12 23:54,99,95,50,93,83,63,33,1.48,54,65.0,60,114,0.57,-1,19,12,10,2820,2248,774,91,469,48,50,0,99,1.4,9.5,6.43,0,954,127
2022/04/12 23:56,99,95,48,92,81,63,30,1.48,54,65.0,60,114,0.57,0.0,30,11,9,2820,2248,774,91,469,48,50,0,98,1.4,9.5,6.43,0,954,127
2022/04/12 23:58,99,95,38,92,80,65,34,1.46,53,65.0,60,114,0.57,0.8,19,10,9,2812,2151,773,92,473,48,50,0,99,1.4,9.5,6.5,0,954,127
2022/04/13 00:00,99,95,50,92,80,60,48,1.46,53,65.0,60,144,0.57,1.6,22,12,11,2812,2151,773,92,473,48,50,0,99,1.4,9.5,6.5,5.7,1015,664
2022/04/13 00:02,98,95,51,90,79,62,51,1.37,49,63.5,60,144,0.57,0,22,12,10,2884,2302,789,108,530,53,52,0,99,1.4,9.5,6.5,5.7,1015,664
2022/04/13 00:04,98,95,51,91,79,61,50,1.37,51,64.0,61,144,0.57,-2,22,12,10,2887,2320,789,109,533,53,52,0,99,1.4,9.5,6.46,5.7,1015,664
2022/04/13 00:06,98,95,51,93,80,62,49,1.42,55,65.5,61,144,0.57,0.3,27,12,11,2886,2288,789,110,535,53,52,0,99,1.4,9.5,6.47,5.7,1015,664
2022/04/13 00:08,99,95,51,93,83,63,49,1.75,59,65.5,62,131,0.57,0,29,12,11,2890,2278,790,111,536,53,52,0,99,1.4,9.5,6.43,5.7,1015,664
2022/04/13 00:10,98,95,50,94,83,63,49,1.75,60,67.0,62,85,0.56,0.3,22,14,11,2886,2260,789,115,539,53,52,0,99,1.4,9.5,6.47,5.7,1015,664
2022/04/13 00:12,98,95,50,94,83,62,49,1.75,60,67.0,62,85,0.56,0,22,16,11,2884,2251,789,115,540,53,52,0,99,1.4,9.5,6.5,5.7,1015,664
2022/04/13 00:14,98,95,55,94,83,59,49,1.66,60,67.0,62,93,0.56,1.1,22,16,12,2878,2225,788,116,543,52,52,0,99,1.4,9.5,6.53,5.7,1015,664
2022/04/13 00:16,98,95,55,93,81,58,49,1.62,57,66.0,60,93,0.56,-1,22,16,9,2878,2225,788,116,543,52,52,0,99,1.4,9.5,6.53,5.7,1015,664
2022/04/13 00:18,97,95,55,92,81,59,49,1.33,53,66.0,62,93,0.56,0,19,15,8,2876,2196,787,118,543,52,52,0,100,1.4,9.5,6.58,4.7,1015,663
2022/04/13 00:20,98,95,55,91,81,59,48,1.44,51,66.0,62,93,0.56,0,23,17,13,2873,2161,786,122,546,51,52,0,100,1.4,9.5,6.68,4.7,1015,663
2022/04/13 00:22,97,95,55,91,80,59,48,1.44,51,66.0,60,75,0.56,0.6,23,17,13,2873,2161,786,122,546,51,52,0,100,1.4,9.5,6.68,4.7,1015,663
2022/04/13 00:24,98,95,55,91,81,59,48,1.44,50,68.5,62,118,0.56,2.5,31,17,13,2876,2161,786,123,546,51,52,0,100,1.4,9.5,6.66,4.7,1015,663
2022/04/13 00:26,98,95,55,91,80,59,47,1.44,50,68.5,62,118,0.56,-1,31,17,12,2879,2165,786,123,546,51,52,0,100,1.4,9.5,6.62,4.7,1015,663
2022/04/13 00:28,98,95,55,91,79,58,46,1.44,50,68.5,61,118,0.56,0.1,31,17,11,2884,2155,781,125,548,50,52,0,100,1.4,9.5,6.63,4.7,1015,663
2022/04/13 00:30,98,95,53,93,79,58,48,1.43,50,68.5,60,118,0.56,1.4,18,15,11,2884,2155,781,125,548,50,52,0,100,1.4,9.5,6.63,4.7,1015,663
2022/04/13 00:32,98,95,55,92,80,59,48,1.43,53,67.5,60,117,0.44,-1,18,15,13,2884,2140,777,127,550,49,52,0,100,1.4,9.5,6.64,4.7,1015,663
2022/04/13 00:34,98,95,55,92,80,61,48,1.43,53,67.5,60,117,0.4,0.4,18,15,14,2886,2140,776,128,550,49,52,0,100,1.4,9.4,6.62,3.1,1015,614
2022/04/13 00:36,98,95,55,91,80,61,47,1.39,53,65.5,59,117,0.4,0.1,29,15,14,2891,2149,776,128,549,48,52,0,100,1.4,9.4,6.57,3.1,1015,614
2022/04/13 00:38,97,95,55,90,79,59,46,1.2,48,65.5,58,98,0.4,0,29,15,14,2891,2149,776,128,549,48,52,0,100,1.4,9.4,6.57,3.1,1015,614
2022/04/13 00:40,98,95,55,92,79,58,46,1.45,53,64.5,60,106,0.4,0.9,29,15,9,2879,2085,769,133,552,47,52,0,99,1.4,9.4,6.74,3.1,979,614
2022/04/13 00:42,99,95,55,92,79,60,47,1.45,53,64.5,58,150,0.55,2.1,29,15,10,2876,2067,768,135,559,47,52,0,99,1.4,9.4,6.84,3.1,979,614
2022/04/13 00:44,99,95,47,91,77,65,47,1.45,53,64.5,58,150,0.55,-3,18,13,10,2854,1997,764,138,563,46,52,0,98,1.4,9.4,7.0,3.1,979,614
2022/04/13 00:46,98,95,45,87,74,52,41,1.2,51,63.5,58,150,0.55,0.4,18,13,8,2854,1997,762,139,564,46,52,0,97,1.4,9.4,7.01,2.7,979,586
2022/04/13 00:48,98,95,43,87,74,52,41,1.2,49,63.5,58,172,0.55,1.9,18,13,8,2852,1994,760,141,565,45,52,0,96,1.4,9.4,7.08,2.7,979,586
2022/04/13 00:50,98,95,12,85,73,51,32,1.2,49,62.5,58,172,0.55,-1,13,8,8,2852,1994,760,141,565,45,52,0,97,1.4,9.4,7.08,2.7,979,586
2022/04/13 00:52,98,95,30,90,78,61,41,1.34,49,64.0,60,172,0.55,0.3,19,8,10,2843,1938,755,146,572,45,52,0,96,1.4,9.4,7.25,0.9,975,483
2022/04/13 00:54,99,95,30,91,78,61,41,1.5,49,64.0,62,172,0.55,0.1,19,8,9,2829,1922,747,148,576,45,52,0,94,1.3,9.4,7.33,0.9,975,483
2022/04/13 00:56,99,95,41,91,78,61,41,1.5,47,64.0,61,134,0.56,0.0,25,10,11,2829,1922,747,148,576,45,52,0,91,1.3,9.4,7.33,0.9,975,483
2022/04/13 00:58,99,95,44,91,77,61,41,1.5,46,64.5,60,134,0.6,0,25,10,11,2827,1913,737,152,576,45,52,0,91,1.3,9.4,7.36,0.9,974,483
2022/04/13 01:00,99,95,44,88,76,68,22,1.5,46,64.5,60,163,0.62,1.6,25,10,11,2829,1922,737,151,574,45,52,0,88,1.3,9.4,7.32,0,805,617
2022/04/13 01:02,98,95,44,87,73,67,23,1.33,46,64.5,60,163,0.62,-3,19,10,11,2843,1938,741,148,570,45,52,0,94,1.3,9.4,7.22,0,805,617
2022/04/13 01:04,98,95,44,87,74,68,24,1.33,46,64.5,57,163,0.62,0.0,19,10,11,2843,1938,741,148,570,45,52,0,97,1.3,9.4,7.22,0,805,617
2022/04/13 01:06,98,95,53,85,73,64,25,1.33,44,62.5,57,163,0.62,0,19,11,12,2827,1911,733,154,574,45,52,0,97,1.3,9.4,7.36,0,805,617
2022/04/13 01:08,98,95,53,86,75,65,25,1.47,47,62.5,60,95,0.62,0.1,16,11,11,2825,1895,728,157,574,45,52,0,97,1.3,9.4,7.43,0,805,617
2022/04/13 01:10,98,95,53,87,76,67,25,1.5,52,62.5,62,95,0.62,0.0,20,13,12,2814,1862,725,164,577,45,52,0,97,1.3,9.4,7.58,0,805,617
2022/04/13 01:12,98,95,53,87,75,65,24,1.5,52,62.5,60,136,0.7,1.6,15,13,12,2814,1862,725,164,577,45,52,0,96,1.3,9.4,7.58,0,805,617
2022/04/13 01:14,98,95,53,88,76,66,25,1.5,52,64.0,60,136,0.7,-3,16,13,12,2805,1839,723,168,577,45,51,0,97,1.3,9.4,7.67,0,805,617
2022/04/13 01:16,99,95,47,89,77,66,25,1.54,52,64.0,62,136,0.7,0.2,16,13,13,2801,1824,722,170,580,45,51,0,98,1.3,9.4,7.74,0,805,617
2022/04/13 01:18,99,95,47,88,74,65,24,1.54,52,64.0,58,136,0.7,0,16,13,13,2785,1802,722,179,582,46,51,0,98,1.3,9.4,7.91,0,821,595
2022/04/13 01:20,98,95,47,86,74,64,32,1.54,50,62.5,58,83,0.7,0.2,16,13,11,2758,1754,722,191,589,46,51,0,98,1.3,9.4,8.19,0,821,595
2022/04/13 01:22,98,95,49,84,73,64,26,1.28,54,60.5,58,123,0.7,1.1,16,13,11,2776,1754,724,193,584,46,51,0,98,1.3,9.4,8.16,0,821,595
2022/04/13 01:24,99,95,39,86,74,65,24,1.57,54,60.5,60,123,0.7,-1,15,10,11,2776,1754,724,193,584,46,51,0,97,1.3,9.4,8.16,0,821,595
2022/04/13 01:26,99,95,46,86,74,62,24,1.57,54,60.5,57,123,0.7,0.2,15,12,13,2762,1717,728,205,580,46,51,0,96,1.3,9.4,8.37,0,821,595
2022/04/13 01:28,99,95,46,86,74,62,24,1.57,54,60.5,57,123,0.7,0,15,12,12,2762,1717,728,205,580,46,51,0,97,1.3,9.4,8.37,0,821,595
2022/04/13 01:30,98,95,44,82,70,60,24,1.22,52,60.5,56,136,0.7,2.5,15,12,12,2757,1684,740,215,571,46,51,0,97,1.3,9.4,8.59,0,821,595
2022/04/13 01:32,98,95,50,82,70,64,27,1.22,52,60.5,56,136,0.7,-1,15,12,12,2757,1684,740,215,571,46,51,0,98,1.3,9.4,8.59,0,821,595
2022/04/13 01:34,94,95,53,85,71,66,33,1.09,39,60.0,56,136,0.7,1.3,15,12,10,2488,1666,654,183,554,48,56,0,99,1.5,9.5,8.73,0,821,458
2022/04/13 01:36,94,95,53,85,71,66,33,1.09,39,60.0,56,136,0.7,-1,17,12,12,2488,1666,654,183,554,48,56,0,99,1.5,9.5,8.73,0,821,458
2022/04/13 01:38,92,95,55,84,70,66,33,0.95,35,60.0,56,134,0.7,0.1,19,12,12,2485,1620,650,185,552,48,56,0,99,1.5,9.5,8.8,0,821,458
2022/04/13 01:40,93,95,55,83,71,66,34,1.02,36,62.0,57,134,0.7,0,19,12,13,2480,1601,649,186,551,48,56,0,98,1.5,9.5,8.81,0,821,458
2022/04/13 01:42,90,95,55,85,71,64,31,1.02,43,62.0,56,92,0.7,0.5,19,13,13,2469,1574,643,191,548,47,56,0,97,1.5,9.5,8.74,0,821,458
2022/04/13 01:44,90,95,55,84,71,62,31,1.02,43,62.0,56,92,0.66,0,21,15,17,2465,1601,640,194,545,47,56,0,96,1.5,9.5,8.73,0,821,458
2022/04/13 01:46,90,95,55,84,72,61,31,1.02,43,61.5,58,92,0.66,0,21,15,15,2465,1601,640,194,545,47,56,0,96,1.5,9.5,8.75,0,821,458
2022/04/13 01:48,90,95,55,83,73,61,31,1.05,38,61.5,57,92,0.66,0.2,21,15,13,2464,1601,639,195,545,47,56,0,95,1.5,9.5,8.76,0,878,458
2022/04/13 01:50,92,95,55,84,73,63,31,1.06,39,61.5,57,97,0.66,2.4,19,14,11,2463,1561,637,197,543,47,56,0,95,1.5,9.5,9.02,0,878,458
2022/04/13 01:52,92,95,52,86,74,60,29,1.07,39,63.5,57,97,0.66,-1,14,12,12,2462,1544,637,199,542,47,56,0,94,1.5,9.5,9.06,0,878,458
2022/04/13 01:54,92,95,52,86,73,60,29,1.07,39,63.5,58,97,0.66,0,14,12,12,2463,1539,636,200,543,46,56,0,95,1.5,9.5,9.16,0,878,458
2022/04/13 01:56,94,95,43,87,74,56,26,1.18,44,63.5,60,97,0.66,1.1,14,12,10,2463,1500,636,201,542,46,56,0,93,1.5,9.5,9.31,0,878,458
2022/04/13 01:58,96,95,41,87,77,56,26,1.44,46,63.0,60,90,0.66,0,14,11,9,2464,1462,635,203,543,46,56,0,94,1.5,9.5,9.47,0,878,458
2022/04/13 02:00,96,95,28,87,75,66,25,1.44,46,61.0,59,104,0.66,1.4,13,10,10,2612,1685,591,188,604,50,55,0,92,1.5,9.5,9.47,0,746,730
2022/04/13 02:02,96,95,26,87,74,60,24,1.44,46,61.0,58,104,0.56,-1,13,10,8,2506,1637,586,191,605,50,55,0,88,1.5,9.5,9.52,0,746,730
2022/04/13 02:04,96,95,26,87,75,63,25,1.44,46,61.0,58,107,0.56,1.3,13,10,9,2506,1637,586,191,605,50,55,0,85,1.5,9.5,9.52,0,746,730
2022/04/13 02:06,92,95,22,82,72,67,28,1.11,42,61.0,60,107,0.56,-1,14,9,10,2482,1615,583,192,605,50,55,0,81,1.5,9.5,9.57,0,746,730
2022/04/13 02:08,93,95,22,84,72,64,30,1.16,42,61.0,60,107,0.56,0.1,14,9,9,2430,1575,581,194,604,50,55,0,84,1.5,9.5,9.62,0,652,663
2022/04/13 02:10,95,95,22,85,75,64,30,1.3,42,61.0,60,107,0.56,0.9,14,9,9,2400,1556,577,194,603,50,55,0,88,1.5,9.5,9.65,0,652,663
2022/04/13 02:12,95,95,16,85,75,63,26,1.38,44,60.5,60,101,0.56,0,13,8,8,2345,1534,574,194,602,51,55,0,89,1.5,9.5,9.76,0,652,663
2022/04/13 02:14,95,95,16,85,75,63,26,1.38,46,60.5,60,101,0.58,0.8,11,8,8,2337,1508,572,194,601,51,55,0,87,1.5,9.5,9.8,0,652,663
2022/04/13 02:16,96,95,10,85,73,58,24,1.42,52,60.5,60,101,0.58,-1,11,8,7,2343,1485,565,191,600,51,54,0,80,1.5,9.5,9.93,0,652,663
2022/04/13 02:18,95,95,10,87,75,53,23,1.42,54,62.5,60,99,0.58,0,11,8,7,2359,1507,562,188,600,51,54,0,76,1.5,9.5,10.01,0,652,663
2022/04/13 02:20,95,95,5,89,74,55,19,1.42,54,64.5,61,99,0.58,0.1,11,7,6,2351,1485,559,186,599,51,54,0,74,1.5,9.5,10.09,0,652,663
2022/04/13 02:22,90,95,3,89,73,50,17,1.38,54,64.5,60,60,0.58,0,8,6,6,2313,1451,558,185,599,51,54,0,73,1.5,9.5,10.09,0,652,663
2022/04/13 02:24,93,95,2,87,71,45,14,1.35,49,64.5,60,74,0.61,1.3,8,6,6,2285,1423,554,184,598,51,54,0,76,1.5,9.5,10.06,0,652,663
2022/04/13 02:26,93,95,15,87,73,68,30,1.34,46,61.0,57,74,0.61,-1,14,8,8,2260,1383,554,182,599,51,54,0,76,1.5,9.5,9.92,0,652,663
2022/04/13 02:28,87,95,27,83,71,62,29,1.08,43,60.5,57,74,0.61,0,14,8,11,2255,1346,554,180,600,51,54,0,69,1.5,9.5,9.8,0,652,663
2022/04/13 02:30,85,95,27,82,71,63,29,1.01,41,60.5,58,74,0.61,0,14,8,10,2260,1332,554,178,599,50,54,0,71,1.5,9.5,9.73,0,652,663
2022/04/13 02:32,79,95,30,83,73,62,29,1.09,41,61.0,58,52,0.61,0.2,11,9,10,2260,1327,554,178,598,50,54,0,78,1.5,9.5,9.71,0,652,663
2022/04/13 02:34,86,95,27,84,74,61,24,1.09,42,62.0,59,71,0.78,1.7,11,9,9,2260,1300,555,177,599,50,54,0,73,1.5,9.5,9.59,0,745,673
2022/04/13 02:36,86,95,21,81,68,47,22,1.09,42,62.0,58,71,0.78,-1,11,9,7,2255,1264,555,175,601,50,54,0,49,1.5,9.5,9.42,0,745,673
2022/04/13 02:38,86,95,15,82,71,48,22,1.09,42,62.0,58,71,0.78,0.1,10,8,8,2263,1244,558,171,601,49,54,0,52,1.5,9.5,9.32,0,745,673
2022/04/13 02:40,86,95,9,82,69,46,21,1.05,44,61.5,60,71,0.78,0,10,8,7,2270,1222,559,169,603,49,54,0,52,1.4,9.4,9.19,0,745,673
2022/04/13 02:42,83,95,9,84,68,47,20,1.11,44,63.5,60,54,0.78,0.9,10,8,7,2345,1180,560,162,606,49,54,0,38,1.4,9.4,8.87,0,745,673
2022/04/13 02:44,83,95,6,84,64,50,18,1.11,44,63.5,60,54,0.78,0,10,7,7,2345,1180,560,162,606,49,54,0,32,1.4,9.4,8.87,0,745,673
2022/04/13 02:46,89,95,16,85,68,48,21,1.21,39,63.5,58,63,0.78,1.8,11,9,9,2358,1164,564,160,606,49,54,0,45,1.4,9.4,8.73,0,745,673
2022/04/13 02:48,89,95,21,86,72,56,24,1.21,39,63.5,58,63,0.78,-1,11,9,8,2361,1144,566,158,606,49,54,0,63,1.4,9.4,8.59,0,745,673
2022/04/13 02:50,89,95,21,84,72,57,24,1.21,39,60.5,58,63,0.78,0.1,11,9,7,2393,1117,567,155,607,49,54,0,69,1.4,9.4,8.42,0,745,673
2022/04/13 02:52,84,95,15,82,70,57,24,1.09,39,60.5,58,63,0.78,0,13,8,7,2429,1113,569,155,608,49,54,0,54,1.4,9.4,8.32,0,745,673
2022/04/13 02:54,77,97,16,81,65,52,21,1.11,39,60.5,58,40,0.78,0.0,12,8,8,2438,1085,571,153,606,48,54,0,29,1.4,9.4,8.07,0,745,673
2022/04/13 02:56,84,95,18,82,61,52,20,1.15,43,60.5,60,53,0.78,1.0,12,8,9,2433,1073,571,153,608,48,54,0,20,1.4,9.4,7.99,0,745,673
2022/04/13 02:58,88,95,18,86,68,53,24,1.27,43,63.0,60,53,0.78,0,12,8,8,2488,1323,568,198,641,53,56,0,41,1.4,9.4,8.05,0,745,644
2022/04/13 03:00,88,95,19,84,66,56,21,1.31,43,63.0,60,53,0.78,0,12,9,9,2488,1271,569,199,637,52,56,0,25,1.5,9.4,7.66,0,603,580
2022/04/13 03:02,90,95,37,89,68,66,26,1.31,45,63.0,60,60,0.78,2.3,15,10,10,2466,1234,568,198,636,51,56,0,25,1.5,9.4,7.39,0,434,530
2022/04/13 03:04,92,95,49,91,72,67,29,1.48,48,63.5,59,60,0.78,-1,19,10,10,2438,1214,565,195,634,50,56,0,37,1.5,9.4,7.29,0,434,530
2022/04/13 03:06,93,95,46,91,75,68,32,1.5,50,63.5,56,60,0.67,0,19,10,10,2414,1204,565,195,634,50,56,0,52,1.5,9.4,7.25,0,434,530
2022/04/13 03:08,93,95,42,91,72,68,30,1.5,50,63.5,56,60,0.67,0,16,10,8,2410,1185,556,193,634,49,56,0,42,1.5,9.4,7.16,0,434,530
2022/04/13 03:10,89,95,49,90,70,64,28,1.5,50,61.5,55,49,0.67,1.8,16,10,12,2319,1204,544,179,636,50,56,0,30,1.5,9.4,7.27,0,434,530
2022/04/13 03:12,66,97,43,84,58,61,28,0.92,41,61.0,55,49,0.67,0,16,10,11,2302,1185,535,179,634,49,56,0,16,1.5,9.4,7.16,0,434,530
2022/04/13 03:14,78,97,38,84,58,61,26,0.88,38,61.0,54,75,0.58,2.0,15,9,8,2244,1169,533,178,632,49,55,0,17,1.5,9.4,7.05,0,434,530
2022/04/13 03:16,75,97,33,84,55,63,26,0.81,36,60.5,54,75,0.58,-1,15,9,8,2218,1146,530,173,631,49,55,0,16,1.5,9.4,7.0,0,434,518
2022/04/13 03:18,72,97,19,82,54,62,24,0.79,31,61.0,54,75,0.52,0,15,9,8,2195,1126,524,176,629,48,55,0,17,1.5,9.4,6.81,0,434,518
2022/04/13 03:20,77,97,17,82,56,63,24,0.87,29,61.0,55,75,0.52,0,15,9,7,2152,1108,517,172,628,48,55,0,14,1.5,9.4,6.72,0,434,518
2022/04/13 03:22,79,97,13,82,56,59,22,0.87,31,61.0,55,83,0.64,2.0,10,7,5,2114,1098,515,173,628,48,55,0,14,1.5,9.4,6.62,0,434,518
2022/04/13 03:24,79,94,8,78,51,55,17,0.87,31,59.5,54,83,0.64,-1,10,7,7,2089,1074,513,172,623,49,55,0,11,1.5,9.4,6.54,0,434,518
2022/04/13 03:26,84,92,8,80,51,55,18,0.95,32,60.5,57,88,0.64,1.7,10,7,7,2078,1056,510,167,620,49,55,0,12,1.5,9.4,6.51,0,434,518
2022/04/13 03:28,84,92,6,79,53,55,15,0.95,34,60.5,57,88,0.64,-1,8,6,7,2052,1047,502,167,617,49,55,0,11,1.5,9.4,6.48,0,434,518
2022/04/13 03:30,81,95,4,79,53,51,14,0.95,36,60.5,52,88,0.69,0.8,8,6,7,2023,1028,498,167,614,49,55,0,12,1.5,9.4,6.45,0,434,518
2022/04/13 03:32,79,95,3,75,53,46,10,0.95,36,59.5,52,88,0.69,0,8,6,6,1994,992,496,162,611,49,55,0,27,1.5,9.4,6.36,0,396,518
2022/04/13 03:34,73,94,5,77,50,58,15,0.81,36,58.5,52,83,0.69,0,11,6,6,1959,978,495,162,606,49,55,0,36,1.5,9.4,6.29,0,396,518
2022/04/13 03:36,73,94,4,79,52,58,16,0.81,32,60.0,54,83,0.69,0.2,8,6,5,1919,941,486,159,604,50,54,0,54,1.5,9.4,6.27,0,396,518
2022/04/13 03:38,61,88,5,80,54,62,15,0.81,32,60.0,54,59,0.69,0,8,6,7,1888,928,475,152,599,50,54,0,71,1.5,9.4,6.31,0,396,457
2022/04/13 03:40,61,88,6,78,54,65,16,0.81,30,60.0,54,58,0.69,0.6,8,6,7,1851,919,472,147,598,50,54,0,72,1.5,9.4,6.44,0,330,437
2022/04/13 03:42,57,88,5,78,53,60,14,0.77,31,60.0,54,58,0.69,0,12,5,7,1836,870,470,147,595,50,54,0,55,1.5,9.4,6.26,0,330,437
2022/04/13 03:44,49,85,6,74,47,60,12,0.69,31,59.0,54,58,0.69,-1,9,6,7,1799,863,463,147,587,50,54,0,31,1.5,9.4,6.06,0,330,437
